This demonstration page uses our WeatherBlox Daily Observations layout. Learn more.

38.80484, -77.04692

Hourly Observations for July 7, 2019

Temp ( °F °C ) Dew Point ( °F °C ) Humidity (%) Winds ( mph kmh ) Pressure ( in mb ) Visibility ( mi km ) Precip ( " mm )
12:52 am 00:52 Cloudy with Nearby Thunderstorms 76 24.4 72 22.2 88 88 S 3 6 29.88 1012 10 16.09344 0 0
1:15 am 01:15 Cloudy 76 24.4 72 22.2 88 88 Calm 29.88 1012 10 16.09344 0 0
1:52 am 01:52 Cloudy 76 24.4 72 22.2 88 88 Calm 29.85 1011 10 16.09344 0 0
2:52 am 02:52 Cloudy 76 24.4 72 22.2 88 88 N 5 7 29.85 1011 10 16.09344 0 0
3:52 am 03:52 Cloudy 76 24.4 72 22.2 88 88 NNW 7 11 29.85 1011 10 16.09344 0 0
4:52 am 04:52 Cloudy 76 24.4 71 21.7 85 85 NW 5 7 29.85 1011 10 16.09344 0 0
5:52 am 05:52 Mostly Cloudy 76 24.4 72 22.2 88 88 Calm 29.88 1012 10 16.09344 0 0
6:52 am 06:52 Mostly Cloudy 76 24.4 71 21.7 85 85 N 6 9 29.88 1012 10 16.09344 0 0
7:52 am 07:52 Mostly Cloudy 78 25.6 71 21.7 79 79 N 7 11 29.91 1013 10 16.09344 0 0
8:52 am 08:52 Mostly Cloudy 80 26.7 71 21.7 74 74 N 6 9 29.91 1013 10 16.09344 0 0
9:52 am 09:52 Mostly Cloudy 80 26.7 70 21.1 71 71 NNE 3 6 29.91 1013 10 16.09344 0 0
11:52 am 11:52 Cloudy 81 27.2 71 21.7 72 72 NE 3 6 29.91 1013 10 16.09344 0 0
12:52 pm 12:52 Cloudy 82 27.8 71 21.7 69 69 NE 3 6 29.91 1013 10 16.09344 0 0
1:52 pm 13:52 Mostly Cloudy 84 28.9 72 22.2 67 67 Calm 29.91 1013 10 16.09344 0 0
2:52 pm 14:52 Mostly Cloudy 87 30.6 71 21.7 59 59 NE 8 13 29.85 1011 10 16.09344 0 0
3:52 pm 15:52 Mostly Cloudy 88 31.1 72 22.2 59 59 ENE 7 11 29.85 1011 10 16.09344 0 0
4:52 pm 16:52 Mostly Cloudy 89 31.7 70 21.1 53 53 E 3 6 29.83 1010 10 16.09344 0 0
5:52 pm 17:52 Mostly Cloudy 88 31.1 72 22.2 59 59 E 8 13 29.83 1010 10 16.09344 0 0
5:59 pm 17:59 Partly Cloudy with Thunderstorms 87 30.6 71 21.7 59 59 E 7 11 29.85 1011 10 16.09344 0 0
6:14 pm 18:14 Mostly Cloudy 86 30 71 21.7 61 61 ESE 9 15 29.85 1011 10 16.09344 0 0
6:52 pm 18:52 Mostly Cloudy 85 29.4 72 22.2 65 65 SE 9 15 29.85 1011 10 16.09344 0 0
7:32 pm 19:32 Cloudy with Nearby Thunderstorms 84 28.9 71 21.7 65 65 ESE 10 17 29.88 1012 10 16.09344 0 0
7:47 pm 19:47 Cloudy 84 29 70 21 62 62 ESE 8 13 29.88 1012 10 16.09344 0 0
7:52 pm 19:52 Cloudy 84 28.9 70 21.1 63 63 ESE 8 13 29.85 1011 10 16.09344 0 0
8:52 pm 20:52 Cloudy 82 27.8 68 20 63 63 ESE 6 9 29.85 1011 10 16.09344 0 0
9:52 pm 21:52 Cloudy 81 27.2 71 21.7 72 72 ESE 8 13 29.88 1012 10 16.09344 0 0
10:52 pm 22:52 Cloudy 80 26.7 71 21.7 74 74 E 8 13 29.88 1012 10 16.09344 0 0
11:52 pm 23:52 Cloudy 79 26.1 73 22.8 82 82 ESE 8 13 29.85 1011 10 16.09344 0 0

Powered by AerisWeather